Total_Precipitation_Accumulation
1.37 1.41 1.38 1.47 1.58 1.84 2.03 1.98 1.78 1.75 1.76 1.74 1.72 1.76 1.90 2.01 2.13 2.27 2.34 2.34 2.34 2.47 2.41 2.39 2.49 2.61 2.87 2.84 2.89 2.88 2.80 2.74 2.68 2.39 2.00 2.01 2.35 2.48 2.34 2.07 1.86 1.89 1.73
1.16 1.23 1.31 1.35 1.46 1.56 1.68 1.71 1.64 1.53 1.49 1.54 1.58 1.57 1.64 1.83 1.96 1.99 2.04 2.04 2.05 2.17 2.23 2.19 2.25 2.35 2.47 2.69 2.83 2.81 2.83 2.82 2.82 2.74 2.34 2.11 2.14 2.30 2.40 2.34 2.02 1.85 1.76
1.07 1.17 1.29 1.30 1.31 1.29 1.32 1.29 1.31 1.31 1.34 1.37 1.48 1.52 1.57 1.65 1.80 1.82 1.86 1.80 1.80 1.86 2.00 2.08 2.15 2.22 2.25 2.40 2.39 2.47 2.61 2.79 2.92 2.85 2.69 2.41 2.26 2.27 2.35 2.31 2.22 2.20 1.93
1.18 1.27 1.34 1.36 1.37 1.34 1.31 1.29 1.30 1.29 1.31 1.40 1.56 1.63 1.63 1.66 1.65 1.72 1.79 1.79 1.68 1.62 1.69 1.73 1.87 2.03 2.08 2.28 2.25 2.25 2.43 2.69 2.98 3.01 2.90 2.65 2.51 2.47 2.44 2.39 2.40 2.34 2.25
1.08 1.21 1.28 1.38 1.45 1.38 1.26 1.20 1.27 1.26 1.25 1.39 1.52 1.63 1.68 1.67 1.63 1.74 1.80 1.82 1.74 1.56 1.50 1.53 1.60 1.78 2.09 2.22 2.18 2.39 2.55 2.61 2.78 2.93 2.92 2.87 2.73 2.58 2.46 2.36 2.39 2.40 2.42
1.01 1.08 1.28 1.40 1.35 1.30 1.20 1.17 1.17 1.17 1.18 1.27 1.40 1.56 1.66 1.61 2.06 2.08 1.86 1.78 1.73 1.58 1.45 1.44 1.44 1.48 1.72 2.06 2.24 2.39 2.52 2.58 2.60 2.66 2.70 2.63 2.61 2.56 2.66 2.63 2.54 2.44 2.38
0.96 1.10 1.30 1.34 1.25 1.18 1.21 1.24 1.16 1.15 1.20 1.26 1.31 1.31 1.39 1.71 1.85 1.58 1.60 1.55 1.63 1.53 1.41 1.33 1.26 1.26 1.45 1.53 1.71 1.84 2.03 2.35 2.57 2.61 2.48 2.32 2.44 2.48 2.61 2.64 2.55 2.45 2.32
0.88 1.01 1.19 1.23 1.21 1.24 1.22 1.21 1.13 1.08 1.07 1.12 1.15 1.19 1.23 1.40 1.48 1.37 1.46 1.33 1.45 1.43 1.33 1.30 1.28 1.29 1.36 1.43 1.59 1.71 1.67 1.74 2.00 2.08 2.09 2.13 2.19 2.41 2.55 2.60 2.67 2.58 2.51
0.73 0.89 1.01 1.04 1.13 1.17 1.09 1.09 1.05 0.97 0.97 1.00 1.05 1.11 1.18 1.19 1.28 1.27 1.34 1.41 1.52 1.48 1.35 1.33 1.31 1.27 1.52 1.70 1.65 1.68 1.73 1.69 1.82 2.00 2.21 2.22 2.18 2.21 2.36 2.40 2.53 2.58 2.53
0.69 0.82 0.93 0.95 0.97 1.01 1.06 1.05 1.04 1.01 0.97 0.98 1.02 1.03 1.08 1.13 1.32 1.19 1.27 1.40 1.50 1.52 1.49 1.40 1.55 1.51 1.66 1.71 1.62 1.74 1.76 1.59 1.52 1.60 1.78 1.83 1.77 1.85 2.11 2.09 2.31 2.48 2.37
0.59 0.70 0.78 0.82 0.90 1.00 1.10 1.13 1.16 1.13 1.05 1.03 1.08 1.09 1.04 1.13 1.33 1.32 1.33 1.32 1.49 1.54 1.57 1.50 1.39 1.55 1.57 1.66 1.71 1.71 1.88 1.79 1.65 1.66 1.77 1.76 1.68 1.69 1.75 1.83 1.98 2.28 2.35
0.50 0.58 0.72 0.82 0.92 1.01 1.12 1.17 1.17 1.19 1.19 1.19 1.16 1.18 1.14 1.12 1.20 1.29 1.34 1.38 1.47 1.45 1.51 1.48 1.44 1.61 1.50 1.49 1.47 1.61 1.96 1.94 1.72 1.70 1.72 1.71 1.67 1.61 1.64 1.68 1.79 1.90 2.01
0.51 0.53 0.60 0.66 0.73 0.84 0.96 1.08 1.13 1.14 1.16 1.17 1.22 1.27 1.27 1.19 1.25 1.40 1.29 1.28 1.34 1.32 1.31 1.42 1.43 1.46 1.40 1.32 1.37 1.51 1.66 1.78 1.78 1.70 1.58 1.53 1.56 1.63 1.68 1.64 1.67 1.80 1.78
0.53 0.54 0.54 0.54 0.58 0.67 0.83 0.91 0.94 0.98 1.05 1.13 1.22 1.33 1.42 1.37 1.28 1.25 1.19 1.20 1.24 1.16 1.12 1.18 1.23 1.25 1.24 1.22 1.28 1.32 1.40 1.58 1.74 1.65 1.52 1.54 1.61 1.69 1.75 1.68 1.69 1.79 1.81
0.47 0.52 0.57 0.57 0.59 0.65 0.73 0.87 0.95 0.99 1.07 1.13 1.18 1.33 1.44 1.46 1.47 1.57 1.49 1.37 1.32 1.31 1.26 1.17 1.13 1.18 1.27 1.29 1.28 1.26 1.32 1.46 1.59 1.57 1.52 1.52 1.61 1.71 1.72 1.69 1.72 1.76 1.76
0.49 0.51 0.55 0.56 0.62 0.69 0.76 0.87 0.96 0.97 0.99 1.02 1.08 1.13 1.19 1.29 1.36 1.37 1.38 1.37 1.32 1.30 1.37 1.33 1.29 1.32 1.35 1.35 1.36 1.29 1.23 1.27 1.39 1.50 1.53 1.49 1.49 1.60 1.69 1.72 1.75 1.79 1.76
0.57 0.58 0.59 0.58 0.63 0.73 0.78 0.83 0.90 0.94 0.95 0.96 0.98 1.04 1.07 1.14 1.16 1.22 1.28 1.35 1.39 1.36 1.36 1.31 1.24 1.17 1.16 1.14 1.19 1.20 1.19 1.17 1.23 1.37 1.45 1.50 1.50 1.57 1.68 1.73 1.77 1.84 1.84
0.48 0.53 0.59 0.63 0.61 0.69 0.81 0.92 0.98 1.06 1.01 0.93 0.94 1.01 1.01 1.02 1.04 1.10 1.22 1.26 1.21 1.19 1.16 1.19 1.15 1.11 1.06 1.07 1.08 1.07 1.10 1.14 1.16 1.22 1.31 1.39 1.48 1.56 1.65 1.70 1.70 1.70 1.76
0.44 0.52 0.62 0.68 0.66 0.70 0.86 1.02 1.05 1.07 1.04 0.95 0.88 0.91 0.95 0.92 0.98 1.06 1.10 1.08 1.08 1.01 0.99 1.03 1.07 1.09 1.04 1.01 1.00 1.00 1.03 1.06 1.09 1.15 1.20 1.23 1.32 1.40 1.47 1.53 1.59 1.67 1.69
0.46 0.59 0.69 0.74 0.70 0.73 0.82 0.89 0.90 0.94 0.94 0.90 0.88 0.91 0.91 0.86 0.85 0.92 0.98 0.99 1.04 1.04 1.06 1.08 1.08 1.08 1.06 1.05 1.05 1.03 1.05 1.07 1.08 1.13 1.22 1.30 1.33 1.35 1.36 1.40 1.49 1.55 1.53
0.56 0.60 0.65 0.70 0.70 0.69 0.74 0.78 0.80 0.83 0.81 0.80 0.81 0.88 0.93 0.85 0.84 0.86 0.89 0.92 0.96 1.05 1.12 1.15 1.15 1.18 1.16 1.13 1.12 1.12 1.11 1.10 1.08 1.12 1.16 1.20 1.26 1.31 1.35 1.39 1.41 1.45 1.50
0.57 0.61 0.62 0.69 0.74 0.71 0.73 0.78 0.82 0.81 0.81 0.78 0.77 0.79 0.85 0.78 0.79 0.82 0.85 0.92 0.97 1.03 1.09 1.11 1.15 1.19 1.23 1.23 1.20 1.20 1.20 1.16 1.12 1.13 1.16 1.16 1.20 1.26 1.33 1.38 1.41 1.41 1.42
0.60 0.61 0.64 0.70 0.73 0.75 0.77 0.80 0.86 0.87 0.86 0.83 0.82 0.82 0.81 0.78 0.77 0.78 0.84 0.94 1.01 1.04 1.04 1.04 1.09 1.17 1.20 1.22 1.22 1.22 1.21 1.17 1.15 1.16 1.23 1.25 1.25 1.27 1.33 1.40 1.44 1.48 1.50
0.60 0.63 0.68 0.74 0.77 0.82 0.88 0.92 0.91 0.90 0.92 0.90 0.85 0.83 0.84 0.82 0.82 0.81 0.84 0.91 0.96 0.96 0.96 0.96 0.97 1.04 1.10 1.14 1.16 1.16 1.15 1.17 1.15 1.16 1.25 1.33 1.33 1.29 1.28 1.33 1.40 1.44 1.51
0.58 0.61 0.65 0.73 0.78 0.83 0.92 0.96 0.93 0.91 0.94 0.97 0.98 0.94 0.88 0.83 0.82 0.83 0.83 0.87 0.88 0.87 0.86 0.86 0.90 0.94 0.96 0.96 0.99 1.04 1.22 1.27 1.22 1.20 1.21 1.31 1.36 1.34 1.35 1.37 1.40 1.46 1.52
0.57 0.61 0.68 0.77 0.83 0.86 0.93 0.98 0.95 0.91 0.94 0.97 0.99 1.01 0.99 0.92 0.85 0.84 0.85 0.87 0.87 0.84 0.83 0.82 0.83 0.85 0.88 0.89 0.92 1.02 1.10 1.07 1.10 1.20 1.21 1.23 1.31 1.36 1.39 1.42 1.42 1.49 1.57